START_TIME,STEP,MOV.,AL01,t_acc.,AL02,t_acc.,E37,t_acc.,H21,t_acc.
1979-03-11 00:00:31.840 ,2,1,0.,24.0,0.,24.0,1.,24.0,0.,24.0
1979-03-11 00:00:55.840 ,6,1,0.,24.0,0.,24.0,1.,24.0,0.,24.0
1979-03-11 00:01:19.840 ,5,1,4.,24.0,0.,24.0,0.,24.0,0.,24.0
1979-03-11 00:01:43.840 ,1,1,0.,24.0,0.,24.0,0.,24.0,0.,24.0
1979-03-11 00:02:07.840 ,2,1,0.,24.0,0.,24.0,0.,24.0,0.,24.0
1979-03-11 00:02:31.840 ,6,1,0.,24.0,0.,24.0,0.,24.0,0.,24.0
1979-03-11 00:02:55.840 ,5,1,4.,24.0,0.,24.0,0.,24.0,0.,24.0
1979-03-11 00:03:19.840 ,1,1,0.,24.0,0.,24.0,1.,24.0,0.,24.0
1979-03-11 00:03:43.840 ,2,1,0.,24.0,0.,24.0,1.,24.0,0.,24.0
1979-03-11 00:04:07.840 ,6,1,0.,24.0,0.,24.0,0.,24.0,0.,24.0
1979-03-11 00:04:31.840 ,5,1,4.,24.0,0.,24.0,0.,24.0,0.,24.0
1979-03-11 00:04:55.840 ,1,1,0.,24.0,0.,24.0,2.,24.0,0.,24.0
1979-03-11 00:05:19.840 ,2,1,0.,24.0,0.,24.0,1.,24.0,0.,24.0
1979-03-11 00:05:43.840 ,6,1,0.,24.0,0.,24.0,1.,24.0,0.,24.0
1979-03-11 00:06:07.830 ,5,1,5.,24.0,0.,24.0,1.,24.0,0.,24.0
1979-03-11 00:06:31.840 ,1,1,0.,24.0,0.,24.0,0.,24.0,0.,24.0
1979-03-11 00:06:55.840 ,2,1,0.,24.0,0.,24.0,0.,24.0,0.,24.0
1979-03-11 00:07:19.840 ,6,1,0.,24.0,0.,24.0,0.,24.0,0.,24.0
1979-03-11 00:07:43.840 ,5,1,7.,24.0,0.,24.0,1.,24.0,0.,24.0
1979-03-11 00:08:07.830 ,1,1,0.,24.0,0.,24.0,1.,24.0,0.,24.0
1979-03-11 00:08:31.840 ,2,1,0.,24.0,0.,24.0,0.,24.0,0.,24.0
1979-03-11 00:08:55.830 ,6,1,0.,24.0,0.,24.0,0.,24.0,0.,24.0
1979-03-11 00:09:19.830 ,5,1,4.,24.0,0.,24.0,1.,24.0,0.,24.0
1979-03-11 00:09:43.830 ,1,1,0.,24.0,0.,24.0,0.,24.0,0.,24.0
1979-03-11 00:10:07.830 ,2,1,1.,24.0,0.,24.0,0.,24.0,0.,24.0
1979-03-11 00:10:31.830 ,6,1,0.,24.0,0.,24.0,0.,24.0,0.,24.0
1979-03-11 00:10:55.830 ,5,1,3.,24.0,0.,24.0,0.,24.0,0.,24.0
1979-03-11 00:11:19.830 ,1,1,0.,24.0,0.,24.0,1.,24.0,0.,24.0
1979-03-11 00:11:43.830 ,2,1,0.,24.0,0.,24.0,0.,24.0,0.,24.0
1979-03-11 00:12:07.830 ,6,1,0.,24.0,0.,24.0,0.,24.0,0.,24.0
1979-03-11 00:12:31.830 ,5,1,1.,24.0,0.,24.0,0.,24.0,0.,24.0
1979-03-11 00:12:55.830 ,1,1,0.,24.0,0.,24.0,0.,24.0,0.,24.0
1979-03-11 00:13:19.830 ,2,1,0.,24.0,0.,24.0,0.,24.0,0.,24.0
1979-03-11 00:13:43.830 ,6,1,1.,24.0,0.,24.0,0.,24.0,0.,24.0
1979-03-11 00:14:07.830 ,5,1,0.,24.0,0.,24.0,0.,24.0,0.,24.0
1979-03-11 00:14:31.830 ,1,1,0.,24.0,0.,24.0,0.,24.0,0.,24.0
1979-03-11 00:14:55.830 ,2,1,0.,24.0,0.,24.0,0.,24.0,0.,24.0
1979-03-11 00:15:19.830 ,6,1,0.,24.0,1.,24.0,1.,24.0,0.,24.0
1979-03-11 00:15:43.830 ,5,1,3.,24.0,0.,24.0,0.,24.0,0.,24.0
1979-03-11 00:16:07.830 ,1,1,0.,24.0,0.,24.0,1.,24.0,0.,24.0
1979-03-11 00:16:31.830 ,2,1,0.,24.0,0.,24.0,0.,24.0,0.,24.0
1979-03-11 00:16:55.830 ,6,1,0.,24.0,0.,24.0,0.,24.0,0.,24.0
1979-03-11 00:17:19.840 ,5,1,5.,24.0,0.,24.0,2.,24.0,0.,24.0
1979-03-11 00:17:43.840 ,1,1,0.,24.0,0.,24.0,1.,24.0,0.,24.0
1979-03-11 00:18:07.840 ,2,1,0.,24.0,0.,24.0,1.,24.0,0.,24.0
1979-03-11 00:18:31.840 ,6,1,0.,24.0,0.,24.0,1.,24.0,0.,24.0
1979-03-11 00:18:55.840 ,5,1,4.,24.0,0.,24.0,0.,24.0,0.,24.0
1979-03-11 00:19:19.840 ,1,1,0.,24.0,0.,24.0,0.,24.0,0.,24.0
1979-03-11 00:19:43.840 ,2,1,0.,24.0,0.,24.0,1.,24.0,0.,24.0
1979-03-11 00:20:07.840 ,6,1,0.,24.0,0.,24.0,0.,24.0,0.,24.0
1979-03-11 00:20:31.840 ,5,1,5.,24.0,0.,24.0,1.,24.0,0.,24.0
1979-03-11 00:20:55.840 ,1,1,0.,24.0,0.,24.0,1.,24.0,0.,24.0
1979-03-11 00:21:19.840 ,2,1,0.,24.0,0.,24.0,0.,24.0,0.,24.0
1979-03-11 00:21:43.840 ,6,1,0.,24.0,0.,24.0,1.,24.0,0.,24.0
1979-03-11 00:22:07.840 ,5,1,3.,24.0,0.,24.0,0.,24.0,0.,24.0
1979-03-11 00:22:31.840 ,1,1,0.,24.0,0.,24.0,0.,24.0,0.,24.0
1979-03-11 00:22:55.840 ,2,1,0.,24.0,1.,24.0,0.,24.0,0.,24.0
1979-03-11 00:23:19.840 ,6,1,0.,24.0,0.,24.0,0.,24.0,0.,24.0
1979-03-11 00:23:43.840 ,5,1,5.,24.0,0.,24.0,0.,24.0,0.,24.0
1979-03-11 00:24:07.840 ,1,1,0.,24.0,0.,24.0,0.,24.0,0.,24.0
1979-03-11 00:24:31.840 ,2,1,0.,24.0,0.,24.0,1.,24.0,0.,24.0
1979-03-11 00:24:55.840 ,6,1,0.,24.0,0.,24.0,1.,24.0,0.,24.0
1979-03-11 00:25:19.840 ,5,1,2.,24.0,0.,24.0,1.,24.0,0.,24.0
1979-03-11 00:25:43.840 ,1,1,0.,24.0,0.,24.0,0.,24.0,0.,24.0
1979-03-11 00:26:07.840 ,2,1,0.,24.0,0.,24.0,0.,24.0,0.,24.0
1979-03-11 00:26:31.840 ,6,1,0.,24.0,0.,24.0,0.,24.0,0.,24.0
1979-03-11 00:26:55.840 ,5,1,5.,24.0,0.,24.0,1.,24.0,0.,24.0
1979-03-11 00:27:19.840 ,1,1,0.,24.0,0.,24.0,0.,24.0,0.,24.0
1979-03-11 00:27:43.840 ,2,1,0.,24.0,0.,24.0,0.,24.0,0.,24.0
1979-03-11 00:28:07.840 ,6,1,0.,24.0,0.,24.0,1.,24.0,0.,24.0
1979-03-11 00:28:31.840 ,5,1,6.,24.0,0.,24.0,1.,24.0,0.,24.0
1979-03-11 00:28:55.840 ,1,1,0.,24.0,0.,24.0,0.,24.0,0.,24.0
1979-03-11 00:29:19.840 ,2,1,0.,24.0,0.,24.0,1.,24.0,0.,24.0
1979-03-11 00:29:43.840 ,6,1,0.,24.0,0.,24.0,0.,24.0,0.,24.0
1979-03-11 00:30:07.840 ,5,1,5.,24.0,0.,24.0,0.,24.0,0.,24.0
1979-03-11 00:30:31.840 ,1,1,0.,24.0,0.,24.0,0.,24.0,0.,24.0
1979-03-11 00:30:55.840 ,2,1,0.,24.0,0.,24.0,1.,24.0,0.,24.0
1979-03-11 00:31:19.840 ,6,1,0.,24.0,0.,24.0,1.,24.0,0.,24.0
1979-03-11 00:31:43.840 ,5,1,5.,24.0,0.,24.0,0.,24.0,0.,24.0
1979-03-11 00:32:07.840 ,1,1,0.,24.0,0.,24.0,0.,24.0,0.,24.0
1979-03-11 00:32:31.840 ,2,1,0.,24.0,0.,24.0,1.,24.0,0.,24.0
1979-03-11 00:32:55.840 ,6,1,0.,24.0,0.,24.0,0.,24.0,0.,24.0
1979-03-11 00:33:19.840 ,5,1,6.,24.0,0.,24.0,0.,24.0,0.,24.0
1979-03-11 00:33:43.840 ,1,1,0.,24.0,0.,24.0,0.,24.0,0.,24.0
1979-03-11 00:34:07.840 ,2,1,0.,24.0,0.,24.0,0.,24.0,0.,24.0
1979-03-11 00:34:31.840 ,6,1,0.,24.0,0.,24.0,1.,24.0,0.,24.0
1979-03-11 00:34:55.840 ,5,1,4.,24.0,0.,24.0,1.,24.0,0.,24.0
1979-03-11 00:35:19.840 ,1,1,0.,24.0,0.,24.0,0.,24.0,0.,24.0
1979-03-11 00:35:43.840 ,2,1,0.,24.0,0.,24.0,1.,24.0,0.,24.0
1979-03-11 00:36:07.840 ,6,1,0.,24.0,0.,24.0,0.,24.0,0.,24.0
1979-03-11 00:36:31.840 ,5,1,5.,24.0,0.,24.0,0.,24.0,0.,24.0
1979-03-11 00:36:55.840 ,1,1,0.,24.0,0.,24.0,0.,24.0,0.,24.0
1979-03-11 00:37:19.840 ,2,1,0.,24.0,0.,24.0,1.,24.0,0.,24.0
1979-03-11 00:37:43.840 ,6,1,0.,24.0,0.,24.0,1.,24.0,0.,24.0
1979-03-11 00:38:07.840 ,5,1,8.,24.0,0.,24.0,1.,24.0,0.,24.0
1979-03-11 00:38:31.840 ,1,1,0.,24.0,0.,24.0,0.,24.0,0.,24.0
1979-03-11 00:38:55.840 ,2,1,0.,24.0,0.,24.0,0.,24.0,0.,24.0
1979-03-11 00:39:19.840 ,5,1,1.,24.0,0.,24.0,1.,24.0,0.,24.0
1979-03-11 00:39:43.840 ,6,1,0.,24.0,0.,24.0,0.,24.0,0.,24.0
1979-03-11 00:40:07.840 ,7,1,1.,24.0,0.,24.0,1.,24.0,0.,24.0
1979-03-11 00:40:31.840 ,7,1,4.,24.0,0.,24.0,0.,24.0,0.,24.0
1979-03-11 00:40:55.840 ,6,1,3.,24.0,0.,24.0,2.,24.0,0.,24.0
1979-03-11 00:41:19.840 ,5,1,0.,24.0,0.,24.0,0.,24.0,0.,24.0
1979-03-11 00:41:43.840 ,4,1,0.,24.0,0.,24.0,2.,24.0,0.,24.0
1979-03-11 00:42:07.840 ,3,1,0.,24.0,0.,24.0,2.,24.0,0.,24.0
1979-03-11 00:42:31.840 ,2,1,0.,24.0,0.,24.0,0.,24.0,0.,24.0
1979-03-11 00:42:55.840 ,1,1,0.,24.0,0.,24.0,0.,24.0,0.,24.0
1979-03-11 00:43:19.840 ,0,1,0.,24.0,0.,24.0,0.,24.0,0.,24.0
1979-03-11 00:43:43.840 ,0,1,0.,24.0,0.,24.0,0.,24.0,0.,24.0
1979-03-11 00:44:07.840 ,1,1,0.,24.0,0.,24.0,0.,24.0,0.,24.0
1979-03-11 00:44:31.840 ,2,1,0.,24.0,0.,24.0,0.,24.0,0.,24.0
1979-03-11 00:44:55.840 ,3,1,0.,24.0,0.,24.0,0.,24.0,0.,24.0
1979-03-11 00:45:19.840 ,4,1,0.,24.0,0.,24.0,0.,24.0,0.,24.0
1979-03-11 00:45:43.840 ,5,1,0.,24.0,0.,24.0,0.,24.0,0.,24.0
1979-03-11 00:46:07.840 ,6,1,0.,24.0,0.,24.0,0.,24.0,0.,24.0
1979-03-11 00:46:31.840 ,7,1,2.,24.0,0.,24.0,1.,24.0,0.,24.0
1979-03-11 00:46:55.840 ,7,1,8.,24.0,0.,24.0,2.,24.0,0.,24.0
1979-03-11 00:47:19.840 ,6,1,9.,24.0,1.,24.0,0.,24.0,0.,24.0
1979-03-11 00:47:43.840 ,5,1,0.,24.0,0.,24.0,2.,24.0,0.,24.0
1979-03-11 00:48:07.840 ,4,1,0.,24.0,0.,24.0,0.,24.0,0.,24.0
1979-03-11 00:48:31.840 ,3,1,0.,24.0,0.,24.0,1.,24.0,0.,24.0
1979-03-11 00:48:55.840 ,2,1,0.,24.0,0.,24.0,0.,24.0,0.,24.0
1979-03-11 00:49:19.840 ,1,1,0.,24.0,0.,24.0,0.,24.0,0.,24.0
1979-03-11 00:49:43.840 ,0,1,0.,24.0,0.,24.0,1.,24.0,0.,24.0
1979-03-11 00:50:07.840 ,0,1,0.,24.0,0.,24.0,2.,24.0,0.,24.0
1979-03-11 00:50:31.840 ,1,1,0.,24.0,0.,24.0,1.,24.0,0.,24.0
1979-03-11 00:50:55.840 ,2,1,0.,24.0,0.,24.0,0.,24.0,0.,24.0
1979-03-11 00:51:19.840 ,3,1,0.,24.0,0.,24.0,1.,24.0,0.,24.0
1979-03-11 00:51:43.840 ,4,1,0.,24.0,0.,24.0,0.,24.0,0.,24.0
1979-03-11 00:52:07.840 ,5,1,0.,24.0,0.,24.0,2.,24.0,0.,24.0
1979-03-11 00:52:31.840 ,6,1,0.,24.0,0.,24.0,3.,24.0,0.,24.0
1979-03-11 00:52:55.840 ,7,1,3.,24.0,0.,24.0,1.,24.0,0.,24.0
1979-03-11 00:53:19.840 ,7,1,11.,24.0,0.,24.0,0.,24.0,0.,24.0
1979-03-11 00:53:43.840 ,6,1,5.,24.0,0.,24.0,2.,24.0,0.,24.0
1979-03-11 00:54:07.840 ,5,1,0.,24.0,0.,24.0,1.,24.0,0.,24.0
1979-03-11 00:54:31.840 ,4,1,0.,24.0,0.,24.0,1.,24.0,0.,24.0
1979-03-11 00:54:55.840 ,3,1,0.,24.0,0.,24.0,1.,24.0,0.,24.0
1979-03-11 00:55:19.840 ,2,1,0.,24.0,0.,24.0,0.,24.0,0.,24.0
1979-03-11 00:55:43.840 ,1,1,0.,24.0,0.,24.0,0.,24.0,0.,24.0
1979-03-11 00:56:07.840 ,0,1,0.,24.0,0.,24.0,0.,24.0,0.,24.0
1979-03-11 00:56:31.840 ,0,1,0.,24.0,0.,24.0,3.,24.0,0.,24.0
1979-03-11 00:56:55.840 ,1,1,0.,24.0,0.,24.0,2.,24.0,0.,24.0
1979-03-11 00:57:19.840 ,2,1,0.,24.0,0.,24.0,0.,24.0,0.,24.0
1979-03-11 00:57:43.840 ,3,1,0.,24.0,0.,24.0,1.,24.0,0.,24.0
1979-03-11 00:58:07.840 ,4,1,0.,24.0,0.,24.0,0.,24.0,0.,24.0
1979-03-11 00:58:31.840 ,5,1,0.,24.0,0.,24.0,1.,24.0,0.,24.0
1979-03-11 00:58:55.840 ,6,1,0.,24.0,0.,24.0,1.,24.0,0.,24.0
1979-03-11 00:59:19.840 ,7,1,1.,24.0,0.,24.0,3.,24.0,0.,24.0
1979-03-11 00:59:43.840 ,7,1,13.,24.0,0.,24.0,2.,24.0,0.,24.0
1979-03-11 01:00:07.840 ,6,1,3.,24.0,0.,24.0,0.,24.0,0.,24.0
1979-03-11 01:00:31.840 ,5,1,0.,24.0,0.,24.0,2.,24.0,0.,24.0
1979-03-11 01:00:55.840 ,4,1,0.,24.0,0.,24.0,1.,24.0,0.,24.0
1979-03-11 01:01:19.840 ,3,1,0.,24.0,0.,24.0,0.,24.0,0.,24.0
1979-03-11 01:01:43.840 ,2,1,0.,24.0,0.,24.0,0.,24.0,0.,24.0
1979-03-11 01:02:07.840 ,1,1,0.,24.0,0.,24.0,0.,24.0,0.,24.0
1979-03-11 01:02:31.840 ,0,1,0.,24.0,0.,24.0,3.,24.0,0.,24.0
1979-03-11 01:02:55.840 ,0,1,0.,24.0,0.,24.0,1.,24.0,0.,24.0
1979-03-11 01:03:19.840 ,1,1,0.,24.0,0.,24.0,0.,24.0,0.,24.0
1979-03-11 01:03:43.840 ,2,1,0.,24.0,0.,24.0,0.,24.0,0.,24.0
1979-03-11 01:04:07.840 ,3,1,1.,24.0,0.,24.0,2.,24.0,0.,24.0
1979-03-11 01:04:31.840 ,4,1,0.,24.0,0.,24.0,1.,24.0,0.,24.0
1979-03-11 01:04:55.840 ,5,1,0.,24.0,0.,24.0,0.,24.0,0.,24.0
1979-03-11 01:05:19.840 ,6,1,0.,24.0,0.,24.0,2.,24.0,0.,24.0
1979-03-11 01:05:43.840 ,7,1,3.,24.0,0.,24.0,1.,24.0,0.,24.0
1979-03-11 01:06:07.840 ,7,1,5.,24.0,0.,24.0,0.,24.0,0.,24.0
1979-03-11 01:06:31.840 ,6,1,5.,24.0,0.,24.0,0.,24.0,0.,24.0
1979-03-11 01:06:55.840 ,5,1,0.,24.0,0.,24.0,1.,24.0,0.,24.0
1979-03-11 01:07:19.840 ,4,1,0.,24.0,0.,24.0,0.,24.0,0.,24.0
1979-03-11 01:07:43.840 ,3,1,0.,24.0,0.,24.0,1.,24.0,0.,24.0
1979-03-11 01:08:07.840 ,2,1,1.,24.0,0.,24.0,0.,24.0,0.,24.0
1979-03-11 01:08:31.840 ,1,1,1.,24.0,0.,24.0,0.,24.0,0.,24.0
1979-03-11 01:08:55.840 ,0,1,0.,24.0,0.,24.0,0.,24.0,0.,24.0
1979-03-11 01:09:19.840 ,0,1,0.,24.0,0.,24.0,0.,24.0,0.,24.0
1979-03-11 01:09:43.840 ,1,1,0.,24.0,0.,24.0,1.,24.0,0.,24.0
1979-03-11 01:10:07.840 ,2,1,0.,24.0,0.,24.0,0.,24.0,0.,24.0
1979-03-11 01:10:31.840 ,3,1,0.,24.0,0.,24.0,1.,24.0,0.,24.0
1979-03-11 01:10:55.840 ,4,1,0.,24.0,0.,24.0,0.,24.0,0.,24.0
1979-03-11 01:11:19.840 ,5,1,0.,24.0,0.,24.0,2.,24.0,0.,24.0
1979-03-11 01:11:43.840 ,6,1,0.,24.0,0.,24.0,0.,24.0,0.,24.0
1979-03-11 01:12:07.840 ,7,1,2.,24.0,0.,24.0,1.,24.0,0.,24.0
1979-03-11 01:12:31.840 ,7,1,5.,24.0,1.,24.0,2.,24.0,0.,24.0
1979-03-11 01:12:55.840 ,6,1,6.,24.0,0.,24.0,0.,24.0,0.,24.0
1979-03-11 01:13:19.840 ,5,1,0.,24.0,0.,24.0,0.,24.0,0.,24.0
1979-03-11 01:13:43.840 ,4,1,0.,24.0,0.,24.0,0.,24.0,0.,24.0
1979-03-11 01:14:07.840 ,3,1,0.,24.0,0.,24.0,1.,24.0,0.,24.0
1979-03-11 01:14:31.840 ,2,1,0.,24.0,0.,24.0,1.,24.0,0.,24.0
1979-03-11 01:14:55.840 ,1,1,0.,24.0,1.,24.0,1.,24.0,0.,24.0
1979-03-11 01:15:19.840 ,0,1,0.,24.0,0.,24.0,0.,24.0,0.,24.0
1979-03-11 01:15:43.840 ,0,1,0.,24.0,0.,24.0,0.,24.0,0.,24.0
1979-03-11 01:16:07.840 ,1,1,0.,24.0,0.,24.0,2.,24.0,0.,24.0
1979-03-11 01:16:31.840 ,2,1,0.,24.0,0.,24.0,0.,24.0,0.,24.0
1979-03-11 01:16:55.840 ,3,1,0.,24.0,0.,24.0,1.,24.0,0.,24.0
1979-03-11 01:17:19.840 ,4,1,0.,24.0,0.,24.0,0.,24.0,0.,24.0
1979-03-11 01:17:43.840 ,5,1,0.,24.0,0.,24.0,0.,24.0,0.,24.0
1979-03-11 01:18:07.840 ,6,1,0.,24.0,0.,24.0,1.,24.0,0.,24.0
1979-03-11 01:18:31.840 ,7,1,3.,24.0,0.,24.0,3.,24.0,0.,24.0
1979-03-11 01:18:55.840 ,7,1,15.,24.0,0.,24.0,0.,24.0,0.,24.0
1979-03-11 01:19:19.840 ,6,1,4.,24.0,0.,24.0,1.,24.0,0.,24.0
1979-03-11 01:19:43.840 ,5,1,0.,24.0,0.,24.0,1.,24.0,0.,24.0
1979-03-11 01:20:07.840 ,4,1,0.,24.0,0.,24.0,0.,24.0,0.,24.0
1979-03-11 01:20:31.840 ,3,1,0.,24.0,0.,24.0,0.,24.0,0.,24.0
1979-03-11 01:20:55.840 ,2,1,0.,24.0,0.,24.0,0.,24.0,0.,24.0
1979-03-11 01:21:19.840 ,1,1,0.,24.0,0.,24.0,1.,24.0,0.,24.0
1979-03-11 01:21:43.840 ,0,1,0.,24.0,0.,24.0,0.,24.0,0.,24.0
1979-03-11 01:22:07.840 ,0,1,0.,24.0,0.,24.0,0.,24.0,0.,24.0
1979-03-11 01:22:31.840 ,1,1,0.,24.0,0.,24.0,1.,24.0,0.,24.0
1979-03-11 01:22:55.840 ,2,1,0.,24.0,0.,24.0,1.,24.0,0.,24.0
1979-03-11 01:23:19.840 ,3,1,0.,24.0,0.,24.0,1.,24.0,0.,24.0
1979-03-11 01:23:43.840 ,4,1,0.,24.0,0.,24.0,1.,24.0,0.,24.0
1979-03-11 01:24:07.840 ,5,1,0.,24.0,0.,24.0,1.,24.0,0.,24.0
1979-03-11 01:24:31.840 ,6,1,0.,24.0,0.,24.0,1.,24.0,0.,24.0
1979-03-11 01:24:55.840 ,7,1,0.,24.0,0.,24.0,1.,24.0,0.,24.0
1979-03-11 01:25:19.840 ,7,1,6.,24.0,0.,24.0,0.,24.0,0.,24.0
1979-03-11 01:25:43.840 ,6,1,9.,24.0,0.,24.0,0.,24.0,0.,24.0
1979-03-11 01:26:07.840 ,5,1,0.,24.0,0.,24.0,0.,24.0,0.,24.0
1979-03-11 01:26:31.840 ,4,1,0.,24.0,0.,24.0,1.,24.0,0.,24.0
1979-03-11 01:26:55.840 ,3,1,0.,24.0,0.,24.0,1.,24.0,0.,24.0
1979-03-11 01:27:19.840 ,2,1,0.,24.0,0.,24.0,2.,24.0,0.,24.0
1979-03-11 01:27:43.840 ,1,1,0.,24.0,0.,24.0,0.,24.0,0.,24.0
1979-03-11 01:28:07.840 ,0,1,0.,24.0,0.,24.0,1.,24.0,0.,24.0
1979-03-11 01:28:31.840 ,0,1,0.,24.0,0.,24.0,0.,24.0,0.,24.0
1979-03-11 01:28:55.840 ,1,1,0.,24.0,1.,24.0,0.,24.0,0.,24.0
1979-03-11 01:29:19.840 ,2,1,0.,24.0,0.,24.0,0.,24.0,0.,24.0
1979-03-11 01:29:43.840 ,3,1,0.,24.0,0.,24.0,1.,24.0,0.,24.0
1979-03-11 01:30:07.840 ,4,1,0.,24.0,0.,24.0,0.,24.0,0.,24.0
1979-03-11 01:30:31.840 ,5,1,0.,24.0,0.,24.0,0.,24.0,0.,24.0
1979-03-11 01:30:55.840 ,6,1,0.,24.0,0.,24.0,1.,24.0,0.,24.0
1979-03-11 01:31:19.840 ,7,1,1.,24.0,0.,24.0,0.,24.0,0.,24.0
1979-03-11 01:31:43.840 ,7,1,11.,24.0,0.,24.0,0.,24.0,0.,24.0
1979-03-11 01:32:07.840 ,6,1,14.,24.0,0.,24.0,0.,24.0,0.,24.0
1979-03-11 01:32:31.840 ,5,1,0.,24.0,0.,24.0,1.,24.0,0.,24.0
1979-03-11 01:32:55.840 ,4,1,0.,24.0,0.,24.0,0.,24.0,0.,24.0
1979-03-11 01:33:19.840 ,3,1,0.,24.0,0.,24.0,2.,24.0,0.,24.0
1979-03-11 01:33:43.840 ,2,1,0.,24.0,0.,24.0,0.,24.0,0.,24.0
1979-03-11 01:34:07.840 ,1,1,0.,24.0,0.,24.0,1.,24.0,0.,24.0
1979-03-11 01:34:31.840 ,0,1,0.,24.0,0.,24.0,0.,24.0,0.,24.0
1979-03-11 01:34:55.840 ,0,1,0.,24.0,0.,24.0,0.,24.0,0.,24.0
1979-03-11 01:35:19.840 ,1,1,0.,24.0,0.,24.0,0.,24.0,0.,24.0
1979-03-11 01:35:43.840 ,2,1,0.,24.0,0.,24.0,0.,24.0,0.,24.0
1979-03-11 01:36:07.840 ,3,1,0.,24.0,0.,24.0,0.,24.0,0.,24.0
1979-03-11 01:36:31.840 ,4,1,0.,24.0,0.,24.0,0.,24.0,0.,24.0
1979-03-11 01:36:55.840 ,5,1,0.,24.0,0.,24.0,1.,24.0,0.,24.0
1979-03-11 01:37:19.840 ,6,1,0.,24.0,0.,24.0,0.,24.0,0.,24.0
1979-03-11 01:37:43.840 ,7,1,2.,24.0,0.,24.0,1.,24.0,0.,24.0
1979-03-11 01:38:07.840 ,7,1,7.,24.0,0.,24.0,0.,24.0,0.,24.0
1979-03-11 01:38:31.840 ,6,1,6.,24.0,0.,24.0,0.,24.0,0.,24.0
1979-03-11 01:38:55.840 ,5,1,0.,24.0,0.,24.0,0.,24.0,0.,24.0
1979-03-11 01:39:19.840 ,4,1,1.,24.0,0.,24.0,1.,24.0,0.,24.0
1979-03-11 01:39:43.840 ,3,1,0.,24.0,0.,24.0,0.,24.0,0.,24.0
1979-03-11 01:40:07.840 ,2,1,0.,24.0,0.,24.0,1.,24.0,0.,24.0
1979-03-11 01:40:31.840 ,1,1,0.,24.0,0.,24.0,0.,24.0,0.,24.0
1979-03-11 01:40:55.840 ,0,1,0.,24.0,0.,24.0,1.,24.0,0.,24.0
1979-03-11 01:41:19.840 ,0,1,0.,24.0,0.,24.0,1.,24.0,0.,24.0
1979-03-11 01:41:43.840 ,1,1,0.,24.0,0.,24.0,1.,24.0,0.,24.0
1979-03-11 01:42:07.840 ,2,1,0.,24.0,0.,24.0,1.,24.0,0.,24.0
1979-03-11 01:42:31.840 ,3,1,0.,24.0,0.,24.0,0.,24.0,0.,24.0
1979-03-11 01:42:55.840 ,4,1,0.,24.0,0.,24.0,0.,24.0,0.,24.0
1979-03-11 01:43:19.840 ,5,1,0.,24.0,0.,24.0,0.,24.0,0.,24.0
1979-03-11 01:43:43.840 ,6,1,0.,24.0,0.,24.0,0.,24.0,0.,24.0
1979-03-11 01:44:07.840 ,7,1,6.,24.0,0.,24.0,0.,24.0,0.,24.0
1979-03-11 01:44:31.840 ,7,1,14.,24.0,0.,24.0,1.,24.0,0.,24.0
1979-03-11 01:44:55.840 ,6,1,7.,24.0,0.,24.0,1.,24.0,0.,24.0
1979-03-11 01:45:19.840 ,5,1,0.,24.0,0.,24.0,1.,24.0,0.,24.0
1979-03-11 01:45:43.840 ,4,1,1.,24.0,0.,24.0,1.,24.0,0.,24.0
1979-03-11 01:46:07.840 ,3,1,0.,24.0,0.,24.0,0.,24.0,0.,24.0
1979-03-11 01:46:31.840 ,2,1,0.,24.0,0.,24.0,1.,24.0,0.,24.0
1979-03-11 01:46:55.840 ,1,1,0.,24.0,0.,24.0,1.,24.0,0.,24.0
1979-03-11 01:47:19.840 ,0,1,0.,24.0,0.,24.0,2.,24.0,0.,24.0
1979-03-11 01:47:43.840 ,0,1,0.,24.0,0.,24.0,0.,24.0,0.,24.0
1979-03-11 01:48:07.840 ,1,1,0.,24.0,0.,24.0,1.,24.0,0.,24.0
1979-03-11 01:48:31.840 ,2,1,0.,24.0,0.,24.0,0.,24.0,0.,24.0
1979-03-11 01:48:55.840 ,3,1,0.,24.0,0.,24.0,1.,24.0,0.,24.0
1979-03-11 01:49:19.840 ,4,1,0.,24.0,0.,24.0,1.,24.0,0.,24.0
1979-03-11 01:49:43.840 ,5,1,0.,24.0,0.,24.0,0.,24.0,0.,24.0
1979-03-11 01:50:07.840 ,6,1,0.,24.0,0.,24.0,1.,24.0,0.,24.0
1979-03-11 01:50:31.840 ,7,1,2.,24.0,0.,24.0,3.,24.0,0.,24.0
1979-03-11 01:50:55.840 ,7,1,8.,24.0,0.,24.0,3.,24.0,0.,24.0
1979-03-11 01:51:19.840 ,6,1,7.,24.0,0.,24.0,2.,24.0,0.,24.0
1979-03-11 01:51:43.840 ,5,1,0.,24.0,0.,24.0,0.,24.0,0.,24.0
1979-03-11 01:52:07.840 ,4,1,0.,24.0,0.,24.0,1.,24.0,0.,24.0
1979-03-11 01:52:31.840 ,3,1,0.,24.0,0.,24.0,1.,24.0,0.,24.0
1979-03-11 01:52:55.840 ,2,1,0.,24.0,0.,24.0,0.,24.0,0.,24.0
1979-03-11 01:53:19.840 ,1,1,0.,24.0,0.,24.0,0.,24.0,0.,24.0
1979-03-11 01:53:43.840 ,0,1,0.,24.0,0.,24.0,0.,24.0,0.,24.0
1979-03-11 01:54:07.840 ,0,1,0.,24.0,0.,24.0,0.,24.0,0.,24.0
1979-03-11 01:54:31.840 ,1,1,0.,24.0,0.,24.0,0.,24.0,0.,24.0
1979-03-11 01:54:55.840 ,2,1,1.,24.0,0.,24.0,0.,24.0,0.,24.0
1979-03-11 01:55:19.840 ,3,1,0.,24.0,0.,24.0,0.,24.0,0.,24.0
1979-03-11 01:55:43.840 ,4,1,0.,24.0,0.,24.0,0.,24.0,0.,24.0
1979-03-11 01:56:07.840 ,5,1,0.,24.0,0.,24.0,1.,24.0,0.,24.0
1979-03-11 01:56:31.840 ,6,1,0.,24.0,0.,24.0,2.,24.0,0.,24.0
1979-03-11 01:56:55.840 ,7,1,2.,24.0,0.,24.0,1.,24.0,0.,24.0
1979-03-11 01:57:19.840 ,7,1,11.,24.0,0.,24.0,2.,24.0,0.,24.0
1979-03-11 01:57:43.840 ,6,1,9.,24.0,0.,24.0,0.,24.0,0.,24.0
1979-03-11 01:58:07.840 ,5,1,0.,24.0,0.,24.0,0.,24.0,0.,24.0
1979-03-11 01:58:31.840 ,4,1,0.,24.0,0.,24.0,0.,24.0,0.,24.0
1979-03-11 01:58:55.840 ,3,1,0.,24.0,0.,24.0,1.,24.0,0.,24.0
1979-03-11 01:59:19.840 ,2,1,0.,24.0,1.,24.0,0.,24.0,0.,24.0
1979-03-11 01:59:43.840 ,1,1,0.,24.0,0.,24.0,0.,24.0,0.,24.0
1979-03-11 02:00:07.840 ,0,1,0.,24.0,1.,24.0,0.,24.0,0.,24.0
1979-03-11 02:00:31.840 ,0,1,0.,24.0,0.,24.0,0.,24.0,0.,24.0
1979-03-11 02:00:55.840 ,1,1,0.,24.0,0.,24.0,0.,24.0,0.,24.0
1979-03-11 02:01:19.840 ,2,1,0.,24.0,0.,24.0,0.,24.0,0.,24.0
1979-03-11 02:01:43.840 ,3,1,0.,24.0,0.,24.0,1.,24.0,0.,24.0
1979-03-11 02:02:07.840 ,4,1,0.,24.0,0.,24.0,0.,24.0,0.,24.0
1979-03-11 02:02:31.840 ,5,1,0.,24.0,0.,24.0,0.,24.0,0.,24.0
1979-03-11 02:02:55.840 ,6,1,0.,24.0,0.,24.0,1.,24.0,0.,24.0
1979-03-11 02:03:19.840 ,7,1,1.,24.0,0.,24.0,0.,24.0,0.,24.0
1979-03-11 02:03:43.840 ,7,1,11.,24.0,0.,24.0,1.,24.0,0.,24.0
1979-03-11 02:04:07.840 ,6,1,7.,24.0,0.,24.0,0.,24.0,0.,24.0
1979-03-11 02:04:31.840 ,5,1,0.,24.0,0.,24.0,0.,24.0,0.,24.0
1979-03-11 02:04:55.840 ,4,1,0.,24.0,0.,24.0,0.,24.0,0.,24.0
1979-03-11 02:05:19.840 ,3,1,0.,24.0,0.,24.0,0.,24.0,0.,24.0
1979-03-11 02:05:43.840 ,2,1,0.,24.0,0.,24.0,0.,24.0,0.,24.0
1979-03-11 02:06:07.840 ,1,1,0.,24.0,0.,24.0,0.,24.0,0.,24.0
1979-03-11 02:06:31.840 ,0,1,0.,24.0,0.,24.0,0.,24.0,0.,24.0
1979-03-11 02:06:55.840 ,0,1,0.,24.0,0.,24.0,0.,24.0,0.,24.0
1979-03-11 02:07:19.840 ,1,1,0.,24.0,0.,24.0,0.,24.0,0.,24.0
1979-03-11 02:07:43.840 ,2,1,0.,24.0,0.,24.0,0.,24.0,0.,24.0
1979-03-11 02:08:07.840 ,3,1,0.,24.0,0.,24.0,0.,24.0,0.,24.0
1979-03-11 02:08:31.840 ,4,1,0.,24.0,0.,24.0,0.,24.0,0.,24.0
1979-03-11 02:08:55.840 ,5,1,0.,24.0,0.,24.0,0.,24.0,0.,24.0
1979-03-11 02:09:19.840 ,6,1,0.,24.0,0.,24.0,0.,24.0,0.,24.0
1979-03-11 02:09:43.840 ,7,1,0.,24.0,0.,24.0,1.,24.0,0.,24.0
1979-03-11 02:10:07.840 ,7,1,15.,24.0,0.,24.0,0.,24.0,0.,24.0
1979-03-11 02:10:31.840 ,6,1,5.,24.0,0.,24.0,0.,24.0,0.,24.0
1979-03-11 02:10:55.840 ,5,1,0.,24.0,0.,24.0,0.,24.0,0.,24.0
1979-03-11 02:11:19.840 ,4,1,0.,24.0,0.,24.0,0.,24.0,0.,24.0
1979-03-11 02:11:43.840 ,3,1,0.,24.0,0.,24.0,1.,24.0,0.,24.0
1979-03-11 02:12:07.840 ,2,1,0.,24.0,0.,24.0,0.,24.0,0.,24.0
1979-03-11 02:12:31.840 ,1,1,0.,24.0,0.,24.0,0.,24.0,0.,24.0
1979-03-11 02:12:55.840 ,0,1,0.,24.0,0.,24.0,0.,24.0,0.,24.0
1979-03-11 02:13:19.840 ,0,1,0.,24.0,0.,24.0,0.,24.0,0.,24.0
1979-03-11 02:13:43.840 ,1,1,0.,24.0,0.,24.0,0.,24.0,0.,24.0
1979-03-11 02:14:07.840 ,2,1,0.,24.0,0.,24.0,0.,24.0,0.,24.0
1979-03-11 02:14:31.840 ,3,1,0.,24.0,0.,24.0,2.,24.0,0.,24.0
1979-03-11 02:14:55.840 ,4,1,0.,24.0,0.,24.0,0.,24.0,0.,24.0
1979-03-11 02:15:19.840 ,5,1,0.,24.0,0.,24.0,0.,24.0,0.,24.0
1979-03-11 02:15:43.840 ,6,1,0.,24.0,0.,24.0,0.,24.0,0.,24.0
1979-03-11 02:16:07.840 ,7,1,4.,24.0,0.,24.0,0.,24.0,0.,24.0
1979-03-11 02:16:31.840 ,7,1,9.,24.0,0.,24.0,0.,24.0,0.,24.0
1979-03-11 02:16:55.840 ,6,1,12.,24.0,0.,24.0,0.,24.0,0.,24.0
1979-03-11 02:17:19.840 ,5,1,0.,24.0,1.,24.0,1.,24.0,0.,24.0
1979-03-11 02:17:43.840 ,4,1,0.,24.0,0.,24.0,1.,24.0,0.,24.0
1979-03-11 02:18:07.840 ,3,1,0.,24.0,0.,24.0,0.,24.0,0.,24.0
1979-03-11 02:18:31.840 ,2,1,0.,24.0,0.,24.0,0.,24.0,0.,24.0
1979-03-11 02:18:55.840 ,1,1,0.,24.0,0.,24.0,3.,24.0,0.,24.0
1979-03-11 02:19:19.840 ,0,1,0.,24.0,0.,24.0,2.,24.0,0.,24.0
1979-03-11 02:19:43.840 ,0,1,0.,24.0,0.,24.0,2.,24.0,0.,24.0
1979-03-11 02:20:07.840 ,1,1,0.,24.0,0.,24.0,0.,24.0,0.,24.0
1979-03-11 02:20:31.840 ,2,1,0.,24.0,0.,24.0,0.,24.0,0.,24.0
1979-03-11 02:20:55.840 ,3,1,0.,24.0,1.,24.0,1.,24.0,0.,24.0
1979-03-11 02:21:19.840 ,4,1,0.,24.0,0.,24.0,0.,24.0,0.,24.0
1979-03-11 02:21:43.840 ,5,1,0.,24.0,0.,24.0,1.,24.0,0.,24.0
1979-03-11 02:22:07.840 ,6,1,0.,24.0,0.,24.0,0.,24.0,0.,24.0
1979-03-11 02:22:31.840 ,7,1,2.,24.0,0.,24.0,1.,24.0,0.,24.0
1979-03-11 02:22:55.840 ,7,1,20.,24.0,0.,24.0,0.,24.0,0.,24.0
1979-03-11 02:23:19.840 ,6,1,5.,24.0,0.,24.0,2.,24.0,0.,24.0
1979-03-11 02:23:43.840 ,5,1,0.,24.0,0.,24.0,1.,24.0,0.,24.0
1979-03-11 02:24:07.840 ,4,1,0.,24.0,0.,24.0,0.,24.0,0.,24.0
1979-03-11 02:24:31.840 ,3,1,0.,24.0,0.,24.0,0.,24.0,0.,24.0
1979-03-11 02:24:55.840 ,2,1,0.,24.0,0.,24.0,1.,24.0,0.,24.0
1979-03-11 02:25:19.840 ,1,1,0.,24.0,0.,24.0,0.,24.0,0.,24.0
1979-03-11 02:25:43.840 ,0,1,0.,24.0,0.,24.0,0.,24.0,0.,24.0
1979-03-11 02:26:07.840 ,0,1,0.,24.0,0.,24.0,0.,24.0,0.,24.0
1979-03-11 02:26:31.840 ,1,1,0.,24.0,0.,24.0,0.,24.0,0.,24.0
1979-03-11 02:26:55.840 ,2,1,0.,24.0,0.,24.0,0.,24.0,0.,24.0
1979-03-11 02:27:19.840 ,3,1,0.,24.0,0.,24.0,0.,24.0,0.,24.0
1979-03-11 02:27:43.840 ,4,1,0.,24.0,0.,24.0,1.,24.0,0.,24.0
1979-03-11 02:28:07.840 ,5,1,0.,24.0,0.,24.0,0.,24.0,0.,24.0
1979-03-11 02:28:31.840 ,6,1,0.,24.0,0.,24.0,0.,24.0,0.,24.0
1979-03-11 02:28:55.840 ,7,1,2.,24.0,0.,24.0,1.,24.0,0.,24.0
1979-03-11 02:29:19.840 ,7,1,7.,24.0,0.,24.0,0.,24.0,0.,24.0
1979-03-11 02:29:43.840 ,6,1,5.,24.0,0.,24.0,1.,24.0,0.,24.0
1979-03-11 02:30:07.840 ,5,1,0.,24.0,0.,24.0,1.,24.0,0.,24.0
1979-03-11 02:30:31.840 ,4,1,1.,24.0,0.,24.0,0.,24.0,0.,24.0
1979-03-11 02:30:55.840 ,3,1,0.,24.0,0.,24.0,3.,24.0,0.,24.0
1979-03-11 02:31:19.840 ,2,1,0.,24.0,0.,24.0,0.,24.0,0.,24.0
1979-03-11 02:31:43.840 ,1,1,0.,24.0,0.,24.0,0.,24.0,0.,24.0
1979-03-11 02:32:07.840 ,0,1,0.,24.0,0.,24.0,0.,24.0,0.,24.0
1979-03-11 02:32:31.840 ,0,1,0.,24.0,0.,24.0,1.,24.0,0.,24.0
1979-03-11 02:32:55.840 ,1,1,0.,24.0,0.,24.0,0.,24.0,0.,24.0
1979-03-11 02:33:19.840 ,2,1,0.,24.0,0.,24.0,0.,24.0,0.,24.0
1979-03-11 02:33:43.840 ,3,1,0.,24.0,0.,24.0,0.,24.0,0.,24.0
1979-03-11 02:34:07.840 ,4,1,0.,24.0,0.,24.0,0.,24.0,0.,24.0